Location: Azul
(36.7830°S, 59.8500°W)
Time: 01:16:52
(UTC-03:00)

CAS-4A - Pass Details

Date: 29 October 2021
Orbit: 529 x 539 km, 43.0° (Epoch: 04 December)

Event Time Altitude Azimuth Distance (km) Brightness Sun altitude
Exits shadow 04:10:03 17° 231° (SW) 1,387 ? -20.0°
Maximum altitude 04:12:42 37° 171° (S) 853 ? -19.6°
Drops below altitude 10° 04:16:31 10° 103° (ESE) 1,791 ? -18.9°
Sets 04:18:53 0° 94° (E) 2,679 ? -18.5°
